Araijuku, Japan

7:05 PM JST on October 21, 2017 (GMT +0900)
大田区 | | Change Station

Elev 0 ft 35.58 °N, 139.71 °E | Updated 10 minutes ago

Rain
Rain
63.3 °F
Feels Like 63.3 °F
N
0.6
Wind Variable Wind from East
Gusts 4.3 mph

Today
High -- | Low -- °F
--% Chance of Precip.
Yesterday
High -- | Low -- °F
Precip. -- in
Pressure 29.98 in
Visibility 6.2 miles
Clouds Few 400 ft
Mostly Cloudy 800 ft
Mostly Cloudy 1500 ft
Dew Point 62 °F
Humidity 97%
Rainfall 0.52 in
Snow Depth Not available.
5:52 AM 4:58 PM
Waxing Crescent, 3% visible
METAR RJTT 210930Z 33010KT 9999 -RA FEW004 BKN008 BKN015 18/18 Q1015 TEMPO 4000 -RA BR
Pressure 29.98 in
Visibility 6.2 miles
Clouds Few 400 ft
Mostly Cloudy 800 ft
Mostly Cloudy 1500 ft
Dew Point 62 °F
Humidity 97%
Rainfall 0.52 in
Snow Depth Not available.
5:52 AM 4:58 PM
Waxing Crescent, 3% visible
METAR RJTT 210930Z 33010KT 9999 -RA FEW004 BKN008 BKN015 18/18 Q1015 TEMPO 4000 -RA BR

Get Severe Weather Alerts

Thanks for signing up!

Be on the lookout for a verification email in your inbox.

You'll start receiving the daily forecast at 6 AM.

×

10-Day Weather Forecast

No radar image for this location.
×

Almanac

Astronomy

Oct. 21, 2017 Rise Set
Actual Time
Civil Twilight
Nautical Twilight
Astronomical Twilight
Moon
Length of Visible Light
Length of Day
Tomorrow will be .
, % of the Moon is Illuminated

Today's Extremes

Country Highs Country Lows

Community

WunderPhotos

Category 6

Welcome to Category 6. This is the collective home for Weather Underground's featured writeups by Dr. Jeff Masters (right), Bob Henson (left), Chris Burt, and other regular contributors.

Nearby

Air Quality

  Air Quality AQ Index Pollutant
Not available.

Snow Depth

Station Depth Elevation

Earthquake Activity

City Distance Mag. Time & Date
Minimum magnitude displayed is 2.5.

Coastal Water Temperatures

Place Temperature

Stations

Nearby Weather Stations

Station Location Temp. Windchill Dew Point Humidity Wind Precip. Elev Updated Type